Weather History for KPRO - May, 2012

Change the Weather History Date:

Sunday, May 27, 2012

  Actual Average Record
Temperature  
Mean Temperature 84 °F -  
Max Temperature 97 °F 74 °F 97 °F (2012)
Min Temperature 72 °F 52 °F 36 °F (1992)
Cooling Degree Days 20    
Growing Degree Days 34 (Base 50)    
Moisture  
Dew Point 61 °F    
Average Humidity 48    
Maximum Humidity 79    
Minimum Humidity 25    
Precipitation  
Precipitation 0.00 in - - ()
Sea Level Pressure  
Sea Level Pressure 29.75 in    
Wind  
Wind Speed 17 mph (South)    
Max Wind Speed 31 mph    
Max Gust Speed 34 mph    
Visibility 10 miles    
Events      
Averages and records for this station are not official NWS values.
T = Trace of Precipitation, MM = Missing Value Source: NWS Daily Summary

Daily Weather History Graph

Daily Weather History Graph

Search for Another Location

Airport or City:

Trip Planner

Search our weather history database for the weather conditions in past years. The results will help you decide how hot, cold, wet, or windy it might be!

Date:

Astronomy

May. 27, 2012 Rise Set
Actual Time 5:46 AM CDT 8:41 PM CDT
Civil Twilight 5:13 AM CDT 9:14 PM CDT
Nautical Twilight 4:31 AM CDT 9:56 PM CDT
Astronomical Twilight 3:42 AM CDT 10:45 PM CDT
Moon 11:55 AM CDT (5/27) 12:45 AM CDT (5/27)
Length of Visible Light 16h 01m
Length of Day
14h 55m
Waxing Crescent, 38% of the Moon is Illuminated
May 27
Waxing Crescent
May 28
First Quarter
Jun 4
Full
Jun 11
Last Quarter
Jun 19
New

Hourly Weather History & Observations

Time (CDT) Temp. Heat Index Dew Point Humidity Pressure Visibility Wind Dir Wind Speed Gust Speed Precip Events Conditions
12:15 AM 79.2 °F - 71.6 °F 78% 29.82 in 10.0 mi SSE 11.5 mph - N/A   Clear
12:35 AM 79.2 °F - 71.6 °F 78% 29.81 in 10.0 mi SSE 11.5 mph - N/A   Clear
12:55 AM 78.8 °F - 71.4 °F 78% 29.81 in 10.0 mi SSE 12.7 mph - N/A   Clear
1:15 AM 78.1 °F - 71.1 °F 79% 29.81 in 10.0 mi South 11.5 mph - N/A   Clear
1:35 AM 77.9 °F - 70.7 °F 78% 29.80 in 10.0 mi South 12.7 mph - N/A   Clear
1:55 AM 77.9 °F - 70.3 °F 77% 29.80 in 10.0 mi South 15.0 mph - N/A   Clear
2:15 AM 78.1 °F - 69.8 °F 76% 29.80 in 10.0 mi South 13.8 mph - N/A   Clear
2:35 AM 77.5 °F - 69.4 °F 76% 29.80 in 10.0 mi South 13.8 mph - N/A   Clear
3:15 AM 76.5 °F - 68.2 °F 75% 29.81 in 10.0 mi South 13.8 mph - N/A   Clear
3:35 AM 75.7 °F - 67.5 °F 75% 29.80 in 10.0 mi South 12.7 mph - N/A   Clear
3:55 AM 75.0 °F - 66.7 °F 75% 29.80 in 10.0 mi South 11.5 mph 17.3 mph N/A   Clear
4:15 AM 74.8 °F - 66.2 °F 74% 29.80 in 10.0 mi South 11.5 mph - N/A   Clear
4:35 AM 74.1 °F - 65.8 °F 75% 29.79 in 10.0 mi South 10.4 mph - N/A   Clear
4:55 AM 73.4 °F - 65.7 °F 77% 29.80 in 10.0 mi SSW 12.7 mph - N/A   Clear
5:15 AM 73.8 °F - 65.3 °F 75% 29.80 in 10.0 mi South 12.7 mph - N/A   Clear
5:35 AM 73.6 °F - 65.1 °F 75% 29.80 in 10.0 mi South 13.8 mph - N/A   Clear
5:55 AM 73.8 °F - 64.8 °F 73% 29.80 in 10.0 mi South 12.7 mph - N/A   Clear
6:15 AM 73.2 °F - 64.6 °F 74% 29.81 in 10.0 mi SSW 10.4 mph - N/A   Clear
6:35 AM 72.9 °F - 64.8 °F 76% 29.82 in 10.0 mi South 9.2 mph - N/A   Clear
6:55 AM 74.1 °F - 65.3 °F 74% 29.82 in 10.0 mi South 11.5 mph - N/A   Clear
7:15 AM 75.9 °F - 65.5 °F 70% 29.81 in 10.0 mi South 13.8 mph - N/A   Clear
7:35 AM 77.4 °F - 65.7 °F 67% 29.81 in 10.0 mi South 16.1 mph 20.7 mph N/A   Clear
7:55 AM 78.8 °F - 65.3 °F 63% 29.81 in 10.0 mi South 19.6 mph 24.2 mph N/A   Clear
8:15 AM 80.1 °F 81.9 °F 65.1 °F 60% 29.80 in 10.0 mi SSW 21.9 mph 26.5 mph N/A   Clear
8:35 AM 81.0 °F 82.6 °F 64.6 °F 57% 29.80 in 10.0 mi SSW 20.7 mph 29.9 mph N/A   Clear
8:55 AM 82.6 °F 83.9 °F 63.9 °F 53% 29.80 in 10.0 mi SSW 25.3 mph 31.1 mph N/A   Clear
9:15 AM 84.2 °F 85.4 °F 63.5 °F 50% 29.80 in 10.0 mi SSW 26.5 mph 32.2 mph N/A   Clear
9:35 AM 84.9 °F 85.9 °F 63.1 °F 48% 29.79 in 10.0 mi SSW 27.6 mph 34.5 mph N/A   Clear
9:55 AM 86.4 °F 87.0 °F 62.6 °F 45% 29.79 in 10.0 mi SSW 25.3 mph 33.4 mph N/A   Clear
10:15 AM 87.6 °F 87.9 °F 61.9 °F 42% 29.78 in 10.0 mi SSW 26.5 mph 31.1 mph N/A   Clear
10:35 AM 88.2 °F 88.1 °F 61.2 °F 40% 29.78 in 10.0 mi SSW 23.0 mph - N/A   Clear
10:55 AM 90.0 °F 89.7 °F 60.6 °F 37% 29.77 in 10.0 mi SSW 26.5 mph 33.4 mph N/A   Clear
11:15 AM 91.4 °F 91.0 °F 59.9 °F 35% 29.76 in 10.0 mi South 25.3 mph 28.8 mph N/A   Clear
11:35 AM 91.6 °F 91.0 °F 59.7 °F 34% 29.77 in 10.0 mi SSW 23.0 mph 33.4 mph N/A   Clear
11:55 AM 92.7 °F 91.8 °F 59.2 °F 32% 29.76 in 10.0 mi SSW 25.3 mph 31.1 mph N/A   Clear
12:15 PM 93.2 °F 91.9 °F 57.0 °F 30% 29.76 in 10.0 mi SSW 24.2 mph 31.1 mph N/A   Clear
12:35 PM 94.1 °F 92.8 °F 57.4 °F 29% 29.75 in 10.0 mi South 23.0 mph 31.1 mph N/A   Clear
12:55 PM 94.8 °F 93.8 °F 57.7 °F 29% 29.74 in 10.0 mi South 25.3 mph 32.2 mph N/A   Clear
1:15 PM 95.5 °F 94.1 °F 56.8 °F 27% 29.74 in 10.0 mi South 24.2 mph 32.2 mph N/A   Clear
1:35 PM 95.9 °F 94.2 °F 55.8 °F 26% 29.73 in 10.0 mi South 23.0 mph 33.4 mph N/A   Clear
1:55 PM 96.8 °F 95.5 °F 56.3 °F 26% 29.73 in 10.0 mi South 23.0 mph 29.9 mph N/A   Clear
2:15 PM 95.9 °F 94.6 °F 57.4 °F 27% 29.72 in 10.0 mi South 24.2 mph 28.8 mph N/A   Clear
2:35 PM 96.4 °F 95.3 °F 57.6 °F 27% 29.72 in 10.0 mi South 21.9 mph 33.4 mph N/A   Clear
2:55 PM 96.6 °F 95.6 °F 57.2 °F 27% 29.71 in 10.0 mi South 27.6 mph 33.4 mph N/A   Clear
3:15 PM 97.5 °F 96.5 °F 56.8 °F 26% 29.71 in 10.0 mi South 26.5 mph 31.1 mph N/A   Scattered Clouds
3:35 PM 96.3 °F 95.1 °F 56.8 °F 27% 29.70 in 10.0 mi South 28.8 mph 33.4 mph N/A   Clear
3:55 PM 96.4 °F 95.0 °F 56.7 °F 26% 29.70 in 10.0 mi SSE 26.5 mph 32.2 mph N/A   Clear
4:15 PM 95.7 °F 94.0 °F 55.4 °F 26% 29.70 in 10.0 mi South 26.5 mph 33.4 mph N/A   Clear
4:35 PM 95.2 °F 93.0 °F 54.7 °F 25% 29.70 in 10.0 mi South 27.6 mph 32.2 mph N/A   Scattered Clouds
4:55 PM 93.7 °F 91.7 °F 55.4 °F 27% 29.71 in 10.0 mi South 24.2 mph 32.2 mph N/A   Scattered Clouds
5:15 PM 94.3 °F 92.4 °F 55.8 °F 27% 29.71 in 10.0 mi South 26.5 mph 31.1 mph N/A   Clear
5:35 PM 94.3 °F 91.8 °F 53.8 °F 25% 29.70 in 10.0 mi South 28.8 mph 34.5 mph N/A   Clear
5:55 PM 93.6 °F 91.2 °F 53.8 °F 26% 29.69 in 10.0 mi South 27.6 mph 32.2 mph N/A   Clear
6:15 PM 91.8 °F 89.3 °F 53.1 °F 27% 29.68 in 10.0 mi South 31.1 mph 34.5 mph N/A   Clear
6:35 PM 91.9 °F 89.8 °F 54.7 °F 28% 29.68 in 10.0 mi South 28.8 mph 33.4 mph N/A   Clear
6:55 PM 90.9 °F 88.7 °F 54.7 °F 29% 29.67 in 10.0 mi South 24.2 mph 33.4 mph N/A   Clear
7:15 PM 90.0 °F 87.7 °F 53.8 °F 29% 29.67 in 10.0 mi South 27.6 mph 33.4 mph N/A   Clear
7:35 PM 88.7 °F 86.5 °F 54.0 °F 30% 29.67 in 10.0 mi South 25.3 mph 31.1 mph N/A   Clear
7:55 PM 87.1 °F 85.3 °F 54.7 °F 33% 29.67 in 10.0 mi South 24.2 mph 31.1 mph N/A   Clear
8:15 PM 86.0 °F 84.3 °F 54.7 °F 34% 29.66 in 10.0 mi South 25.3 mph 31.1 mph N/A   Clear
8:35 PM 84.9 °F 83.6 °F 55.2 °F 36% 29.66 in 10.0 mi South 20.7 mph 28.8 mph N/A   Clear
8:55 PM 84.0 °F 83.0 °F 55.8 °F 38% 29.65 in 10.0 mi South 19.6 mph 26.5 mph N/A   Clear
9:15 PM 82.9 °F 82.3 °F 56.3 °F 40% 29.65 in 10.0 mi SSE 16.1 mph - N/A   Clear
9:35 PM 82.4 °F 81.9 °F 56.3 °F 41% 29.65 in 10.0 mi South 15.0 mph - N/A   Clear
9:55 PM 81.5 °F 81.4 °F 57.0 °F 43% 29.67 in 10.0 mi South 13.8 mph 18.4 mph N/A   Clear
10:15 PM 81.1 °F 81.1 °F 56.8 °F 43% 29.68 in 10.0 mi South 13.8 mph - N/A   Clear
10:35 PM 80.4 °F 80.6 °F 56.8 °F 44% 29.69 in 10.0 mi SSE 12.7 mph - N/A   Clear
10:55 PM 79.7 °F - 57.2 °F 46% 29.68 in 10.0 mi SSE 12.7 mph - N/A   Clear
11:15 PM 79.5 °F - 56.7 °F 45% 29.69 in 10.0 mi South 11.5 mph - N/A   Clear
11:35 PM 78.8 °F - 56.7 °F 46% 29.69 in 10.0 mi South 10.4 mph - N/A   Clear
11:55 PM 78.3 °F - 56.5 °F 47% 29.69 in 10.0 mi South 9.2 mph - N/A   Clear